STARLINK-11276, 61244

Orbit data source: Space-Track

STARLINK-11276, 61244 is a payload satellite owned by SpaceX/Seattle (US) in LEO that was launched on Wed, 25 Sep 2024 UTC via an FALCON 9 launch vehicle from the Air Force Western Test Range (AFWTR). Payloads include a variety of satellites, spacecraft, and rockets equipped with specific instruments for various scientific and technological missions. These include communications satellites like Starlink; space stations such as the ISS; scientific satellites like the Hubble; Earth observation satellites from companies like Planet Labs, Umbra, and HawkEye 360; GPS; miniature CubeSats for education and research; and military/defense satellites.

Loading next visibility...
STARLINK-11276 details
Identifier
61244, 2024-175B
Orbit
LEO
Last TLE update15 hours ago
Origin
Flag of USSpaceX/Seattle (US)
ManufacturerSpaceX/Seattle
MissionOperational spacecraft
Bus & MotorSTARLINK V2M, Unknown motor
Mass730 kg wet, ~700 kg dry
Launch date (UTC)
2024-09-25 (2 months ago)
Launch vehicle
FALCON 9
Launch site
Air Force Western Test Range (AFWTR)
Object type
Payload
Rocket body
Debris
Shape & HBRUnknown
Radar Cross SectionLarge (>1 m²)

Expand to show TLE details & history

TLE from 15 hours ago
0 STARLINK-11276
1 61244U 24175B   24336.85642412  .00002094  00000-0  22127-4 0  9999
2 61244  53.1559 177.8469 0001190  96.6841 263.4312 15.69722192 10673
Epoch: 2024-12-01T20:33Z
Definitive object data (Epoch: 2024-12-01T20:33:15.043Z)
Latitude-0.00007°
Longitude158.34553°
Altitude360.698 km
Speed7.694 km/s
True Right ascension11h 51m 23s
True Declination0° 00' 00"
Sunlit
Object was in daylight at TLE epoch
Visualization TLE readout
Latitude-3.90987°
Longitude-21.72234°
Altitude361.133 km
Speed7.694 km/s
Apparent Right ascension22h 36m 23s
Apparent Declination-22° 48' 06"
Sunlit
Object is in daylight
Visualization observer readout
Local Sidereal Time08:52:05
Azimuth300.01° NW
Elevation-62.097°
Doppler factor1
Orbital elements
Apogee altitude360.755 km
Perigee altitude359.151 km
Semi-major axis6,738.09 km
Eccentricity0.000119
Inclination53.1559°
RAAN177.8469°
Arg. of periapsis96.6841°
True anomaly263.41765°
Mean anomaly263.4312°
Eccentric anomaly263.42443°
Mean motion3.92408 °/min
BSTAR0.000022127
Orbital period91.74 mins
Loading maneuver chart data...
Loading historical data...
Loading historical data...
Loading historical data...
Loading historical data...
Loading historical data...
Loading historical data...
Loading historical data...

STARLINK-11276 Visibility forecast

Observer location: undefined°, undefined

Span
Click to sort rows by Start time (UTC) header in descending order
Start Az.
Max El. time (UTC)
Max El. Az.
Max El.
End time (UTC)
End Az.
4 mins2024-12-02 23:02:24.942Z312.2° NW2024-12-02 23:04:24.942Z120.4° SE41.956°2024-12-02 23:06:24.942Z128.924° SE
|